Kars, Turkey

2:36 PM EEST on September 25, 2016 (GMT +0300)
Kars

Weather History for LTCF - April, 2013

Change the Weather History Date:

Friday, April 5, 2013

  Actual Average Record
Temperature  
Mean Temperature 48 °F -  
Max Temperature 63 °F - - ()
Min Temperature 33 °F - - ()
Degree Days  
Heating Degree Days 17    
Moisture  
Dew Point 36 °F    
Average Humidity 63    
Maximum Humidity 93    
Minimum Humidity 28    
Precipitation  
Precipitation 0.00 in - - ()
Sea Level Pressure  
Sea Level Pressure 29.96 in    
Wind  
Wind Speed 8 mph ()    
Max Wind Speed 30 mph    
Max Gust Speed -    
Visibility 6.2 miles    
Events Rain , Thunderstorm    
T = Trace of Precipitation, MM = Missing Value Source: Averaged Metar Reports

Daily Weather History Graph

Daily Weather History Graph

Search for Another Location

Airport or City:

Trip Planner

Search our weather history database for the weather conditions in past years. The results will help you decide how hot, cold, wet, or windy it might be!

Date:

Astronomy

Apr. 05, 2013 Rise Set
Actual Time 5:45 AM EEST 6:36 PM EEST
Civil Twilight 5:17 AM EEST 7:04 PM EEST
Nautical Twilight 4:44 AM EEST 7:37 PM EEST
Astronomical Twilight 4:10 AM EEST 8:11 PM EEST
Moon 2:39 AM EEST (4/5) 1:35 PM EEST (4/5)
Length of Visible Light 13h 46m
Length of Day
12h 51m
Waning Crescent, 26% of the Moon is Illuminated
Apr 5
Waning Crescent
Apr 10
New
Apr 18
First Quarter
Apr 25
Full
May 2
Last Quarter

Hourly Weather History & Observations

Time (EEST) Temp. Windchill Dew Point Humidity Pressure Visibility Wind Dir Wind Speed Gust Speed Precip Events Conditions
12:50 AM 41.0 °F 39.0 °F 30.2 °F 65% 29.92 in 6.2 mi North 3.5 mph - N/A   Scattered Clouds
1:50 AM 35.6 °F - 30.2 °F 81% 29.89 in 6.2 mi NNW 2.3 mph - N/A   Scattered Clouds
3:00 AM 37 °F - 29 °F 65%  in 6 mi NE 1.2 mph - -   Partly Cloudy
3:50 AM 35.6 °F - 30.2 °F 81% 29.89 in 6.2 mi Calm Calm - N/A   Scattered Clouds
4:50 AM 33.8 °F 29.6 °F 30.2 °F 87% 29.92 in 6.2 mi West 4.6 mph - N/A   Scattered Clouds
5:50 AM 35.6 °F 32.8 °F 30.2 °F 81% 29.92 in 6.2 mi ENE 3.5 mph - N/A   Mostly Cloudy
6:50 AM 35.6 °F - 32.0 °F 87% 29.95 in 6.2 mi Variable 1.2 mph - N/A   Mostly Cloudy
7:50 AM 41.0 °F - 35.6 °F 81% 29.92 in 6.2 mi Calm Calm - N/A   Mostly Cloudy
8:50 AM 53.6 °F - 35.6 °F 51% 29.92 in 6.2 mi ESE 17.3 mph - N/A   Mostly Cloudy
9:00 AM 53 °F - 36 °F 40%  in 6 mi ESE 17.3 mph - -   Partly Cloudy
9:50 AM 53.6 °F - 37.4 °F 54% 29.95 in 6.2 mi SE 15.0 mph - N/A   Mostly Cloudy
10:50 AM 55.4 °F - 37.4 °F 51% 29.95 in 6.2 mi SE 8.1 mph - N/A   Mostly Cloudy
11:50 AM 60.8 °F - 37.4 °F 42% 29.95 in 6.2 mi SSE 9.2 mph - N/A   Mostly Cloudy
12:50 PM 62.6 °F - 35.6 °F 37% 29.92 in 6.2 mi SE 16.1 mph - N/A   Scattered Clouds
1:50 PM 64.4 °F - 35.6 °F 34% 29.92 in 6.2 mi ESE 13.8 mph - N/A   Scattered Clouds
2:50 PM 57.2 °F - 33.8 °F 41% 29.92 in 6.2 mi East 29.9 mph - N/A   Mostly Cloudy
3:00 PM 57 °F - 33 °F 28%  in 6 mi East 29.9 mph - -   Partly Cloudy
3:50 PM 57.2 °F - 35.6 °F 44% 29.95 in 6.2 mi ENE 24.2 mph - N/A   Mostly Cloudy
4:02 PM 55.4 °F - 35.6 °F 47% 29.95 in 6.2 mi NE 24.2 mph - N/A   Mostly Cloudy
4:11 PM 53.6 °F - 37.4 °F 54% 29.95 in 6.2 mi NE 24.2 mph - N/A Thunderstorm Thunderstorm
4:50 PM 53.6 °F - 37.4 °F 54% 29.98 in 6.2 mi ENE 20.7 mph - N/A Thunderstorm Thunderstorm
5:31 PM 51.8 °F - 41.0 °F 67% 29.98 in 6.2 mi ENE 15.0 mph - N/A Rain , Thunderstorm Light Thunderstorms and Rain
5:50 PM 50.0 °F - 41.0 °F 71% 29.98 in 6.2 mi NE 13.8 mph - N/A Rain , Thunderstorm Light Thunderstorms and Rain
6:12 PM 50.0 °F - 41.0 °F 71% 29.98 in 6.2 mi NE 6.9 mph - N/A   Mostly Cloudy
6:50 PM 48.2 °F - 39.2 °F 71% 30.01 in 6.2 mi East 18.4 mph - N/A   Mostly Cloudy
7:50 PM 48.2 °F - 39.2 °F 71% 30.04 in 6.2 mi Variable 2.3 mph - N/A   Mostly Cloudy
8:50 PM 48.2 °F - 41.0 °F 76% 30.04 in 6.2 mi Variable 1.2 mph - N/A   Mostly Cloudy
9:00 PM 48 °F - 40 °F 67%  in 6 mi ENE 1.2 mph - -   Partly Cloudy
9:50 PM 44.6 °F 41.4 °F 41.0 °F 87% 30.06 in 6.2 mi East 5.8 mph - N/A   Mostly Cloudy
10:50 PM 42.8 °F 40.1 °F 41.0 °F 93% 30.06 in 6.2 mi East 4.6 mph - N/A   Mostly Cloudy
11:50 PM 44.6 °F 42.2 °F 39.2 °F 81% 30.06 in 6.2 mi East 4.6 mph - N/A   Scattered Clouds